[[{"header":{"parameterUnit":"m.s-1","parameterCategory":1,"la1":30.2991,"la2":30.254,"lo1":-89.0895,"lo2":-89.0444,"dy":0.0017,"dx":0.0017,"nx":28,"ny":28,"refTime":"2023-10-28T03:00:00:Z","depth":0,"parameterNumber":2,"parameterNumberName":"U-component_of_WINDS"},"data":[0,0,0,0,0,0,0,0,0,0,0,0,0,0,0,0,0,0,0,0,0,0,0,0,0,0,0,0,0,0,0,0,0,0,0,0,0,0,0,0,0,0,0,0,0,0,0,0,0,0,0,0,0,0,0,0,0,0,-2.1073,-2.1073,0,-2.1098,-2.1098,-2.1098,-2.1061,-2.1059,-2.1058,-2.1057,-2.1084,-2.1086,-2.1088,0,0,0,0,0,0,0,0,0,0,0,0,0,-2.0999,-2.1001,-2.1073,-2.1074,-2.1074,-2.1098,-2.1098,-2.1098,-2.1061,-2.1059,-2.1058,-2.1056,-2.1084,-2.1086,-2.1088,0,0,0,0,0,0,0,0,0,0,0,0,0,-2.1028,-2.1001,-2.1073,-2.1058,-2.1057,-2.1098,-2.1098,-2.1098,-2.1061,-2.1059,-2.1057,-2.1055,-2.1083,-2.1086,-2.1089,-2.1146,0,0,-2.1098,-2.1099,0,0,0,0,0,0,0,0,-2.1027,-2.1031,-2.106,-2.1059,-2.1058,-2.1074,-2.1082,-2.1114,-2.1062,-2.106,-2.1057,-2.1054,-2.1083,-2.1085,-2.1094,-2.1147,-2.1148,-2.1098,-2.11,-2.1101,-2.1102,0,0,0,0,0,0,0,-2.1025,-2.103,-2.1083,-2.106,-2.1059,-2.1052,-2.1054,-2.1088,-2.1082,-2.106,-2.1057,-2.106,-2.1082,-2.1092,-2.1095,-2.1149,-2.1098,-2.11,-2.1102,-2.1103,-2.1254,-2.1256,0,0,0,0,0,0,-2.1024,-2.1028,-2.1082,-2.1084,-2.1037,-2.1055,-2.1057,-2.1071,-2.1081,-2.1081,-2.1062,-2.1058,-2.1088,-2.1091,-2.1096,-2.1165,-2.1101,-2.1104,-2.1105,-2.1252,-2.1255,-2.1257,0,0,0,0,0,0,-2.1023,-2.1029,-2.1081,-2.1055,-2.1061,-2.1058,-2.1074,-2.1072,-2.1082,-2.1083,-2.1082,-2.1073,-2.1086,-2.1091,-2.1134,-2.1165,-2.1105,-2.1108,-2.1249,-2.1253,-2.1256,-2.1303,0,0,0,0,0,0,-2.1021,-2.1029,-2.1049,-2.1056,-2.1063,-2.1118,-2.1076,-2.1074,-2.1087,-2.1083,-2.1093,-2.1093,-2.1085,-2.113,-2.1137,-2.1168,-2.111,-2.1246,-2.1251,-2.1255,-2.1299,-2.1308,-2.1315,0,0,0,0,0,-2.1018,-2.1061,-2.105,-2.1057,-2.1088,-2.112,-2.1124,-2.1113,-2.109,-2.1111,-2.1112,-2.1093,-2.1161,-2.1135,-2.1143,-2.1175,-2.1244,-2.125,-2.1254,-2.1295,-2.1306,-2.1315,0,0,0,0,0,0,-2.1057,-2.1062,-2.1049,-2.1096,-2.1108,-2.1113,-2.1139,-2.1124,-2.1143,-2.1139,-2.1126,-2.1129,-2.1175,-2.118,-2.115,-2.1233,-2.1199,-2.1206,-2.1227,-2.1238,-2.1246,-2.1243,-2.1112,0,0,0,0,0,-2.1072,-2.1096,-2.1099,-2.1139,-2.1146,-2.1142,-2.1155,-2.1147,-2.1159,-2.1164,-2.1168,-2.1181,-2.1206,-2.1223,-2.1245,-2.1301,-2.1303,-2.1327,-2.1335,-2.1342,-2.1348,-2.138,-2.1391,-2.1274,-2.1274,-2.1274,0,0,-2.11,-2.1106,-2.1122,-2.1148,-2.1156,-2.1183,-2.1146,-2.1176,-2.1196,-2.1168,-2.1208,-2.1213,-2.1228,-2.1278,-2.13,-2.1283,-2.1381,-2.1349,-2.1354,-2.1356,-2.1386,-2.1397,-2.1407,-2.1277,-2.1276,-2.1276,0,0,-2.1167,-2.1173,-2.1208,-2.1218,-2.1232,-2.1229,-2.1238,-2.1247,-2.1249,-2.129,-2.127,-2.1296,-2.1338,-2.135,-2.1362,-2.1439,-2.1422,-2.1447,-2.1489,-2.1521,-2.153,-2.1538,-2.1566,-2.1577,-2.1453,-2.1453,-2.1453,0,-2.1201,-2.1239,-2.1229,-2.126,-2.1273,-2.1251,-2.1288,-2.1298,-2.1319,-2.1329,-2.131,-2.1366,-2.1374,-2.1427,-2.1446,-2.1456,-2.1468,-2.1444,-2.153,-2.1538,-2.1545,-2.1572,-2.1582,-2.1456,-2.1456,-2.1455,-2.1455,0,-2.1282,-2.1309,-2.1337,-2.1357,-2.1374,-2.1408,-2.1405,-2.1423,-2.1415,-2.1416,-2.146,-2.147,-2.1495,-2.1508,-2.1499,-2.1561,-2.1551,-2.1531,-2.1497,-2.1559,-2.1584,-2.1594,-2.146,-2.1459,-2.1458,-2.1458,0,0,-2.1368,-2.1386,-2.1396,-2.1406,-2.1422,-2.1444,-2.148,-2.1504,-2.1521,-2.1538,-2.1568,-2.1607,-2.159,-2.1604,-2.1598,-2.1625,-2.1688,-2.1603,-2.1603,-2.1618,-2.1759,-2.1772,-2.1784,-2.1678,-2.168,-2.1682,-2.1757,0,-2.1435,-2.1493,-2.1487,-2.1544,-2.1571,-2.1553,-2.1584,-2.1598,-2.1601,-2.1626,-2.1631,-2.1658,-2.1634,-2.1642,-2.1669,-2.1674,-2.1715,-2.1669,-2.1707,-2.1708,-2.1702,-2.1797,-2.181,-2.1881,-2.1767,-2.1769,-2.177,0,-2.1518,-2.1538,-2.1598,-2.1612,-2.1623,-2.1651,-2.1675,-2.1699,-2.1717,-2.1717,-2.1735,-2.1725,-2.1764,-2.1731,-2.1785,-2.1753,-2.1769,-2.1775,-2.1778,-2.1779,-2.1741,-2.18,-2.1903,-2.1913,-2.1785,-2.1784,-2.1783,0,-2.1575,-2.1618,-2.1659,-2.1669,-2.1687,-2.1707,-2.1716,-2.1732,-2.1749,-2.1771,-2.1783,-2.181,-2.1824,-2.1847,-2.1846,-2.1822,-2.1902,-2.1868,-2.1904,-2.1904,-2.1919,-2.1918,-2.2025,-2.1932,-2.1932,-2.1932,-2.1932,0,-2.1648,-2.1685,-2.1686,-2.1711,-2.1754,-2.1748,-2.1791,-2.1798,-2.1813,-2.1841,-2.1829,-2.1856,-2.1854,-2.1883,-2.1883,-2.1929,-2.1936,-2.1938,-2.1938,-2.1938,-2.1938,-2.1947,-2.1942,-2.1935,-2.1934,-2.1934,-2.1933,0,-2.1717,-2.1719,-2.1763,-2.1778,-2.1783,-2.1814,-2.1828,-2.1853,-2.1858,-2.1894,-2.1902,-2.1909,-2.1942,-2.1945,-2.1983,-2.1984,-2.2039,-2.2034,-2.2032,-2.2031,-2.2067,-2.2063,-2.2182,-2.2198,-2.2096,-2.2097,-2.2098,0,-2.1763,-2.1791,-2.181,-2.1828,-2.1838,-2.1867,-2.1885,-2.1883,-2.1902,-2.1927,-2.1951,-2.1983,-2.2008,-2.2063,-2.2073,-2.2103,-2.2098,-2.2138,-2.2102,-2.2103,-2.2098,-2.2096,-2.21,-2.2144,-2.2145,-2.2146,-2.2147,0,-2.1843,-2.1844,-2.1869,-2.1896,-2.1918,-2.1939,-2.1959,-2.1975,-2.1976,-2.1999,-2.2033,-2.2053,-2.2094,-2.2127,-2.2158,-2.217,-2.2159,-2.2159,-2.2169,-2.2168,-2.2167,-2.2168,-2.205,-2.2155,-2.2154,-2.2153,-2.2153,-2.2153,-2.1901,-2.1926,-2.1945,-2.1974,-2.199,-2.201,-2.2035,-2.2044,-2.2072,-2.2104,-2.2103,-2.2141,-2.2163,-2.2203,-2.2218,-2.2249,-2.2236,-2.225,-2.2254,-2.2257,-2.2261,-2.2164,-2.2255,-2.2255,-2.2255,-2.2255,-2.2255,0,-2.198,-2.1992,-2.202,-2.2049,-2.2074,-2.2063,-2.2086,-2.2108,-2.2141,-2.2162,-2.2188,-2.2229,-2.2263,-2.2277,-2.231,-2.2333,-2.233,-2.2342,-2.2339,-2.2343,-2.227,-2.2258,-2.2345,-2.2345,-2.2345,-2.2345,-2.2344,-2.2344,-2.2024,-2.2067,-2.2071,-2.2123,-2.2135,-2.2172,-2.2186,-2.2206,-2.2223,-2.2269,-2.2297,-2.2306,-2.2325,-2.2361,-2.2392,-2.2396,-2.2409,-2.2423,-2.2425,-2.2357,-2.2347,-2.2339,-2.2327,-2.2426,-2.2426,-2.2494,-2.2495,-2.2495]},{"header":{"parameterUnit":"m.s-1","parameterCategory":1,"la1":30.2991,"la2":30.254,"lo1":-89.0895,"lo2":-89.0444,"dy":0.0017,"dx":0.0017,"nx":28,"ny":28,"refTime":"2023-10-28T03:00:00:Z","depth":0,"parameterNumber":3,"parameterNumberName":"V-component_of_WINDS"},"data":[0,0,0,0,0,0,0,0,0,0,0,0,0,0,0,0,0,0,0,0,0,0,0,0,0,0,0,0,0,0,0,0,0,0,0,0,0,0,0,0,0,0,0,0,0,0,0,0,0,0,0,0,0,0,0,0,0,0,1.1786,1.1785,0,1.1725,1.1724,1.1723,1.1792,1.1794,1.1797,1.1799,1.1732,1.1728,1.1724,0,0,0,0,0,0,0,0,0,0,0,0,0,1.1956,1.1953,1.1786,1.1785,1.1784,1.1725,1.1724,1.1723,1.1791,1.1794,1.1797,1.18,1.1734,1.1729,1.1724,0,0,0,0,0,0,0,0,0,0,0,0,0,1.1887,1.1951,1.1786,1.1811,1.1813,1.1725,1.1724,1.1723,1.179,1.1794,1.1798,1.1802,1.1735,1.1729,1.1723,1.1606,0,0,1.1704,1.1701,0,0,0,0,0,0,0,0,1.1891,1.1881,1.1808,1.1809,1.1811,1.177,1.176,1.1684,1.1789,1.1799,1.1799,1.1804,1.1741,1.1735,1.1715,1.1603,1.16,1.1703,1.1699,1.1697,1.1695,0,0,0,0,0,0,0,1.1896,1.1884,1.1762,1.1807,1.1809,1.1824,1.1818,1.1746,1.1749,1.1798,1.1803,1.1795,1.1743,1.1721,1.1714,1.1599,1.1703,1.1698,1.1694,1.1691,1.1387,1.1383,0,0,0,0,0,0,1.1898,1.1887,1.1764,1.176,1.1861,1.1818,1.1811,1.1779,1.175,1.1749,1.1792,1.1799,1.1729,1.1721,1.1711,1.1571,1.1697,1.1691,1.1687,1.1391,1.1386,1.1381,0,0,0,0,0,0,1.1902,1.1887,1.1766,1.1825,1.1811,1.1811,1.1774,1.1776,1.1754,1.1745,1.1746,1.1769,1.1732,1.172,1.1632,1.157,1.1688,1.1682,1.1396,1.1389,1.1383,1.1291,0,0,0,0,0,0,1.1906,1.1887,1.1844,1.1823,1.1807,1.1688,1.177,1.1772,1.1743,1.1751,1.1724,1.1723,1.1734,1.1641,1.1625,1.1563,1.1677,1.1402,1.1393,1.1385,1.1299,1.1282,1.1267,0,0,0,0,0,1.1912,1.182,1.1842,1.1826,1.1754,1.1685,1.1675,1.1692,1.1738,1.1693,1.1688,1.1724,1.158,1.1631,1.1614,1.155,1.1405,1.1395,1.1386,1.1306,1.1285,1.1267,0,0,0,0,0,0,1.1832,1.1818,1.1842,1.174,1.1713,1.1696,1.1641,1.1669,1.1627,1.1636,1.1658,1.1651,1.1556,1.1544,1.1602,1.1434,1.15,1.1486,1.1445,1.1425,1.1409,1.1413,1.1672,0,0,0,0,0,1.1803,1.175,1.174,1.1651,1.1636,1.1641,1.1612,1.1627,1.1599,1.1587,1.1575,1.1546,1.1494,1.1459,1.1411,1.1299,1.1292,1.1245,1.1229,1.1216,1.1203,1.1141,1.112,1.1349,1.1349,1.1349,0,0,1.1741,1.1727,1.1692,1.1635,1.1616,1.1558,1.1631,1.1567,1.1524,1.1577,1.1493,1.1483,1.1451,1.1349,1.1304,1.1337,1.1139,1.1204,1.1193,1.1188,1.1129,1.1107,1.1088,1.1343,1.1344,1.1345,0,0,1.16,1.1585,1.1508,1.1488,1.1459,1.1462,1.1444,1.1422,1.1418,1.1334,1.1372,1.132,1.1231,1.1206,1.1182,1.103,1.1061,1.1014,1.0929,1.0868,1.085,1.0834,1.0777,1.0757,1.1002,1.1002,1.1002,0,1.1526,1.1443,1.1465,1.1399,1.1371,1.1418,1.134,1.1319,1.1274,1.1253,1.1291,1.1179,1.1161,1.1053,1.1016,1.0996,1.0974,1.1016,1.0851,1.0835,1.082,1.0767,1.0746,1.0996,1.0997,1.0997,1.0998,0,1.1354,1.1295,1.1237,1.1194,1.116,1.1088,1.1097,1.106,1.1078,1.1077,1.099,1.097,1.0918,1.0894,1.091,1.0788,1.0809,1.0848,1.0914,1.0792,1.0742,1.0722,1.0988,1.099,1.0992,1.0993,0,0,1.1159,1.1129,1.1107,1.1088,1.1058,1.1013,1.0942,1.0892,1.0859,1.0827,1.0766,1.069,1.0726,1.0698,1.0712,1.0659,1.0537,1.0705,1.0704,1.0672,1.0398,1.0367,1.0343,1.0558,1.0554,1.0551,1.04,0,1.1015,1.0894,1.0912,1.0794,1.0739,1.0783,1.0721,1.0695,1.0692,1.0643,1.064,1.0584,1.0637,1.062,1.057,1.0563,1.0482,1.0574,1.05,1.0497,1.0504,1.0317,1.0284,1.0143,1.0381,1.0378,1.0375,0,1.0832,1.0794,1.0671,1.0649,1.0627,1.0571,1.0526,1.048,1.0451,1.0452,1.0421,1.0444,1.0371,1.044,1.0339,1.0401,1.0372,1.0364,1.0359,1.0351,1.0427,1.0302,1.0098,1.0076,1.0345,1.0348,1.035,0,1.0699,1.0617,1.0533,1.0515,1.0488,1.0447,1.0434,1.0409,1.0378,1.0338,1.0317,1.0269,1.0242,1.0203,1.0213,1.0262,1.0108,1.0178,1.0105,1.0104,1.0069,1.007,0.9855,1.0053,1.0054,1.0054,1.0054,0,1.0536,1.0459,1.0473,1.0421,1.0335,1.0355,1.0268,1.026,1.0237,1.0183,1.0218,1.0165,1.0182,1.013,1.0136,1.005,1.0038,1.0035,1.0038,1.0031,1.0031,1.0011,1.002,1.0048,1.005,1.0051,1.0052,0,1.0373,1.038,1.029,1.0272,1.0266,1.0203,1.0187,1.0136,1.0137,1.0067,1.0052,1.0051,0.9991,0.9997,0.993,0.9934,0.9826,0.9842,0.9836,0.9839,0.9764,0.977,0.9526,0.9494,0.9715,0.9713,0.9712,0,1.0267,1.0209,1.0185,1.0151,1.0135,1.0081,1.0049,1.0066,1.0031,0.9993,0.9947,0.9891,0.9847,0.9749,0.9741,0.969,0.9703,0.9621,0.9695,0.9689,0.9698,0.9701,0.9694,0.9605,0.9603,0.9601,0.9599,0,1.0078,1.0085,1.0038,0.9992,0.9954,0.9918,0.9886,0.9856,0.987,0.9828,0.9768,0.9734,0.9666,0.9609,0.956,0.9544,0.9572,0.9576,0.9556,0.9547,0.9546,0.9543,0.9794,0.9581,0.9583,0.9584,0.9585,0.9586,0.994,0.9889,0.9864,0.981,0.9788,0.9757,0.9709,0.9703,0.9653,0.96,0.9613,0.9544,0.9515,0.9453,0.9432,0.9377,0.9407,0.9378,0.9371,0.9363,0.9353,0.9556,0.9369,0.9369,0.937,0.937,0.9371,0,0.9751,0.9737,0.9688,0.9642,0.9599,0.9632,0.9597,0.9559,0.9499,0.947,0.9426,0.9356,0.93,0.9288,0.9235,0.9193,0.9205,0.9178,0.918,0.9176,0.9331,0.9353,0.917,0.917,0.917,0.917,0.917,0.917,0.9647,0.9563,0.9566,0.947,0.9456,0.939,0.9367,0.9338,0.9315,0.9236,0.919,0.9183,0.916,0.9105,0.9055,0.9053,0.903,0.8998,0.9001,0.9145,0.9165,0.9184,0.9205,0.8994,0.8994,0.885,0.8849,0.8848]}]]